DECAYED

STARLINK-2175, 47757 (Decayed)

Orbit data source: Space-Track

STARLINK-2175, 47757 was a payload satellite owned by SpaceX/Seattle (US) in LEO that was launched on Thu, 04 Mar 2021 UTC via an FALCON 9 launch vehicle from the Air Force Eastern Test Range (AFETR). Payload-class satellites include a variety of spacecraft equipped with specific instruments for various scientific and technological missions. These include communications satellites like Starlink; space stations such as the ISS; scientific satellites like the Hubble; Earth observation satellites from companies like Planet Labs, Umbra, and HawkEye 360; GPS; miniature CubeSats for education and research; and military/defense satellites.

Not visible in the next 10 days
Identifier
47757, 2021-017AM
Orbit
Decayed
Last TLE update
4 months ago
Origin
Manufacturer
SpaceX/Seattle
Mission
Decayed Commercial Communications
Bus & Motor
STARLINK, Unknown motor
Mass
260 kg wet, ~248 kg dry
Launch date (UTC)
2021-03-04 (4 years ago)
Launch vehicle
FALCON 9
Launch site
Air Force Eastern Test Range (AFETR)
Object type
Payload
Rocket body
Debris
Shape & HBR
Box + 1 Pan, 8.86 m
Radar Cross Section
13.562 m², Large (>1 m²)

Expand to show TLE details & history

TLE from 4 months ago
0 STARLINK-2175
1 47757U 21017AM  25049.61410997  .14821081  12440-4  86765-3 0  9993
2 47757  53.0190  92.4893 0001702  14.6473  74.0627 16.41771100219815
Epoch: 2025-02-18T14:44Z
TLE epoch observation values (Epoch: 2025-02-18T14:44:19.101Z)
Latitude
53.15908°
Longitude
170.47859°
Altitude
167.258 km
Speed
7.813 km/s
True Right ascension
12h 01m 29s
True Declination
52° 58' 44"
Sunlit
Object was in full shadow at epoch
Visualization orbit readout
Visualization observer readout
Orbital elements
Apogee altitude
162.501 km
Perigee altitude
160.275 km
Semi-major axis
6,539.525 km
Eccentricity
0.00017
Inclination
53.019°
RAAN
92.4893°
Arg. of periapsis
14.6473°
True anomaly
Unknown
Mean anomaly
74.0627°
Eccentric anomaly
Unknown
Mean motion
4.10416 °/min
Orbital period
87.72 mins
BSTAR
0.00086765
Loading maneuver chart data...
Loading SW <> Apogee altitude chart data...
Loading historical data...
Loading historical data...
Loading historical data...
Loading historical data...
Loading historical data...
Loading historical data...
Loading historical data...

STARLINK-2175 Visibility

Observer location: undefined°, undefined°

This satellite is decayed
Span
Click to sort rows by Start time (UTC) header in descending order
Start Az.
Max El. time (UTC)
Max El. Az.
Max El.
End time (UTC)
End Az.
|